User: anonymous   Login
Location: Unspecified
(0.0000°N, 0.0000°E)
Time: 23:31:19
(UTC+00:00)
Language:

STARLINK-3350 - Orbit

View from above orbital plane
View from above orbital plane
View from above satellite
View from above satellite

Ground track
Ground track

The orbit is defined by the following mean orbital elements,

1 51105U          26145.41977472 +.00000000 +00000-0 +17082-3 0 00005
2 51105  53.2136 304.6663 0001225 110.3072 249.8052 15.08851872    01
Epoch (UTC): 25 May 2026 10:04:28
Eccentricity: 0.0001225
inclination: 53.2136°
perigee height: 539 km
apogee height: 541 km
right ascension of ascending node: 304.6663°
argument of perigee: 110.3072°
revolutions per day: 15.08851872
mean anomaly at epoch: 249.8052°

The dashed part of the orbit path shows where the satellite is in the earth's shadow,  

DLR